Location: Cuiabá
(15.6014°S, 56.0979°W)
Time: 17:44:12
(UTC-04:00)

Envisat - Pass Details

Date: 28 November 2022
Orbit: 763 x 765 km, 98.2° (Epoch: 05 February)

Event Time Altitude Azimuth Distance (km) Brightness Sun altitude
Rises 02:07:26 0° 59° (ENE) 3,220 6.4 -37.0°
Reaches altitude 10° 02:12:01 10° 98° (E) 2,303 6.0 -36.2°
Maximum altitude 02:12:55 10° 108° (ESE) 2,274 6.1 -36.0°
Drops below altitude 10° 02:13:49 10° 119° (ESE) 2,307 6.2 -35.9°
Sets 02:18:24 0° 157° (SSE) 3,242 7.1 -35.0°
